Torna al catalogo

LEASAT 2

AttivoMilitareGEO
NORAD 15236·PAYLOAD·🇺🇸 United States

Lanciato Aug 30, 1984 da Cape Canaveral Space Force Station

Loading…

TLE

AggiornatoSource: Space-Track

Epoca: Sep 14, 2026, 12:42 UTC

1 15236U 84093C   26257.52972205 -.00000153  00000-0  00000-0 0  9995
2 15236  10.6232 311.4915 0032122 285.0155  78.3868  0.97456303128933

Traccia LEASAT 2 in tempo reale con AllMySat

Download on the App Store